User: anonymous   Login
Location: Banios
(43.0451°N, 0.2335°E)
Time: 21:37:55
(UTC+00:00)
Language:

Cosmos 1908 - Orbit

View from above orbital plane
View from above orbital plane
View from above satellite
View from above satellite

Ground track
Ground track

The orbit data is extracted from the following two-line orbital elements,

1 18748U 88001A   21112.11294957  .00000708  00000-0  35814-4 0  9990
2 18748  82.4686 112.3601 0015023  74.1333 286.1554 15.15308347818410
Epoch (UTC): 22 April 2021 02:42:38
Eccentricity: 0.0015023
inclination: 82.4686°
perigee height: 509 km
apogee height: 530 km
right ascension of ascending node: 112.3601°
argument of perigee: 74.1333°
revolutions per day: 15.15308347
mean anomaly at epoch: 286.1554°
orbit number at epoch: 81841

The dashed part of the orbit path shows where the satellite is in the earth's shadow,  

DLR